| time (UTC) | temp C | wind direction | speed KPH | gust KPH | rain 1hr cm | rain 24hr cm | rain mn cm | humidity % | barometer mb |
| 20260904011350 | 22 | 296 | 8.0 | 22.5 | 0.00 | 0.00 | 0.00 | 58 | |
| 20260904010341 | 23 | 277 | 16.1 | 24.1 | 0.00 | 0.00 | 0.00 | 57 | |
| 20260904010138 | 23 | 258 | 20.9 | 22.5 | 0.00 | 0.00 | 0.00 | 57 | |
| 20260904005936 | 23 | 261 | 8.0 | 22.5 | 0.00 | 0.00 | 0.00 | 57 | |
| 20260904005734 | 23 | 285 | 9.7 | 20.9 | 0.00 | 0.00 | 0.00 | 58 | |
| 20260904005532 | 23 | 272 | 14.5 | 20.9 | 0.00 | 0.00 | 0.00 | 58 | |
| 20260904005330 | 23 | 260 | 20.9 | 20.9 | 0.00 | 0.00 | 0.00 | 58 | |
| 20260904005130 | 23 | 265 | 11.3 | 22.5 | 0.00 | 0.00 | 0.00 | 58 | |
| 20260904004928 | 23 | 268 | 16.1 | 22.5 | 0.00 | 0.00 | 0.00 | 57 | |
| 20260904004726 | 23 | 277 | 14.5 | 20.9 | 0.00 | 0.00 | 0.00 | 57 | |
| 20260904004522 | 23 | 251 | 12.9 | 20.9 | 0.00 | 0.00 | 0.00 | 57 | |
| 20260904004322 | 23 | 274 | 8.0 | 20.9 | 0.00 | 0.00 | 0.00 | 57 | |
| 20260904004118 | 23 | 255 | 17.7 | 24.1 | 0.00 | 0.00 | 0.00 | 56 | |
| 20260904003918 | 23 | 251 | 4.8 | 24.1 | 0.00 | 0.00 | 0.00 | 57 | |
| 20260904003716 | 23 | 261 | 20.9 | 24.1 | 0.00 | 0.00 | 0.00 | 56 | |
| 20260904003514 | 23 | 262 | 16.1 | 24.1 | 0.00 | 0.00 | 0.00 | 56 | |
| 20260904003311 | 23 | 253 | 12.9 | 24.1 | 0.00 | 0.00 | 0.00 | 56 | |
| 20260904003109 | 23 | 264 | 22.5 | 19.3 | 0.00 | 0.00 | 0.00 | 55 | |
| 20260904002907 | 23 | 278 | 11.3 | 19.3 | 0.00 | 0.00 | 0.00 | 55 | |
| 20260904002503 | 23 | 258 | 16.1 | 20.9 | 0.00 | 0.00 | 0.00 | 55 | |
| 20260904002306 | 23 | 255 | 12.9 | 20.9 | 0.00 | 0.00 | 0.00 | 55 | |
| 20260904002059 | 23 | 262 | 9.7 | 24.1 | 0.00 | 0.00 | 0.00 | 55 | |
| 20260904001857 | 23 | 261 | 17.7 | 24.1 | 0.00 | 0.00 | 0.00 | 56 | |
| 20260904001655 | 23 | 268 | 11.3 | 19.3 | 0.00 | 0.00 | 0.00 | 56 | |
| 20260904001453 | 23 | 260 | 14.5 | 19.3 | 0.00 | 0.00 | 0.00 | 56 | |
| 20260904001253 | 23 | 255 | 4.8 | 19.3 | 0.00 | 0.00 | 0.00 | 56 | |
| 20260904001049 | 23 | 272 | 12.9 | 22.5 | 0.00 | 0.00 | 0.00 | 56 | |
| 20260904000443 | 23 | 246 | 17.7 | 22.5 | 0.00 | 0.00 | 0.00 | 56 | |
| 20260904000241 | 23 | 265 | 19.3 | 25.7 | 0.00 | 0.00 | 0.00 | 56 | |
| 20260904000039 | 23 | 270 | 17.7 | 25.7 | 0.00 | 0.00 | 0.00 | 55 | |
| 20260903235837 | 24 | 285 | 11.3 | 25.7 | 0.00 | 0.00 | 0.00 | 54 | |
| 20260903235433 | 23 | 261 | 11.3 | 24.1 | 0.00 | 0.00 | 0.00 | 55 | |
| 20260903235231 | 23 | 251 | 12.9 | 25.7 | 0.00 | 0.00 | 0.00 | 55 | |
| 20260903235029 | 23 | 309 | 9.7 | 25.7 | 0.00 | 0.00 | 0.00 | 56 | |
| 20260903234827 | 23 | 255 | 20.9 | 25.7 | 0.00 | 0.00 | 0.00 | 55 | |
| 20260903234423 | 23 | 271 | 19.3 | 29.0 | 0.00 | 0.00 | 0.00 | 56 | |
| 20260903234224 | 23 | 251 | 20.9 | 27.4 | 0.00 | 0.00 | 0.00 | 55 | |
| 20260903234020 | 23 | 262 | 25.7 | 27.4 | 0.00 | 0.00 | 0.00 | 55 | |
| 20260903233616 | 23 | 257 | 22.5 | 27.4 | 0.00 | 0.00 | 0.00 | 53 | |
| 20260903233414 | 24 | 92 | 6.4 | 27.4 | 0.00 | 0.00 | 0.00 | 55 | |
| 20260903233212 | 23 | 255 | 12.9 | 27.4 | 0.00 | 0.00 | 0.00 | 56 | |
| 20260903232606 | 24 | 262 | 17.7 | 27.4 | 0.00 | 0.00 | 0.00 | 54 | |
| 20260903232404 | 24 | 262 | 20.9 | 27.4 | 0.00 | 0.00 | 0.00 | 54 | |
| 20260903231800 | 24 | 260 | 22.5 | 25.7 | 0.00 | 0.00 | 0.00 | 52 | |
| 20260903231558 | 24 | 248 | 16.1 | 24.1 | 0.00 | 0.00 | 0.00 | 53 | |
| 20260903231356 | 24 | 226 | 11.3 | 24.1 | 0.00 | 0.00 | 0.00 | 54 | |
| 20260903231154 | 24 | 275 | 16.1 | 25.7 | 0.00 | 0.00 | 0.00 | 55 | |
| 20260903230952 | 24 | 237 | 11.3 | 25.7 | 0.00 | 0.00 | 0.00 | 55 | |
| 20260903230750 | 24 | 246 | 19.3 | 25.7 | 0.00 | 0.00 | 0.00 | 53 | |
| 20260903230345 | 24 | 254 | 19.3 | 27.4 | 0.00 | 0.00 | 0.00 | 54 | |
| 20260903225942 | 25 | 261 | 12.9 | 27.4 | 0.00 | 0.00 | 0.00 | 52 | |
| 20260903225538 | 24 | 251 | 16.1 | 27.4 | 0.00 | 0.00 | 0.00 | 54 | |
| 20260903225337 | 24 | 247 | 16.1 | 27.4 | 0.00 | 0.00 | 0.00 | 55 | |
| 20260903225135 | 24 | 265 | 11.3 | 25.7 | 0.00 | 0.00 | 0.00 | 55 | |
| 20260903224931 | 25 | 270 | 20.9 | 25.7 | 0.00 | 0.00 | 0.00 | 55 | |
| 20260903224731 | 24 | 264 | 11.3 | 32.2 | 0.00 | 0.00 | 0.00 | 55 | |
| 20260903224529 | 25 | 277 | 19.3 | 32.2 | 0.00 | 0.00 | 0.00 | 55 | |
| 20260903224327 | 24 | 250 | 16.1 | 32.2 | 0.00 | 0.00 | 0.00 | 55 | |
| 20260903224125 | 25 | 262 | 24.1 | 29.0 | 0.00 | 0.00 | 0.00 | 54 | |
| 20260903223923 | 25 | 255 | 17.7 | 29.0 | 0.00 | 0.00 | 0.00 | 54 | |
| 20260903223721 | 25 | 268 | 16.1 | 27.4 | 0.00 | 0.00 | 0.00 | 54 | |
| 20260903223519 | 25 | 255 | 19.3 | 27.4 | 0.00 | 0.00 | 0.00 | 54 | |
| 20260903223316 | 25 | 250 | 17.7 | 27.4 | 0.00 | 0.00 | 0.00 | 54 | |
| 20260903223115 | 25 | 244 | 9.7 | 25.7 | 0.00 | 0.00 | 0.00 | 55 | |
| 20260903222911 | 25 | 270 | 16.1 | 25.7 | 0.00 | 0.00 | 0.00 | 56 | |
| 20260903222709 | 25 | 272 | 17.7 | 30.6 | 0.00 | 0.00 | 0.00 | 57 | |
| 20260903222508 | 24 | 253 | 14.5 | 30.6 | 0.00 | 0.00 | 0.00 | 57 | |
| 20260903222308 | 24 | 262 | 14.5 | 30.6 | 0.00 | 0.00 | 0.00 | 57 | |
| 20260903222105 | 25 | 265 | 9.7 | 25.7 | 0.00 | 0.00 | 0.00 | 57 | |
| 20260903221902 | 24 | 264 | 14.5 | 25.7 | 0.00 | 0.00 | 0.00 | 57 | |
| 20260903221701 | 24 | 274 | 17.7 | 25.7 | 0.00 | 0.00 | 0.00 | 57 | |
| 20260903221459 | 25 | 250 | 14.5 | 25.7 | 0.00 | 0.00 | 0.00 | 57 | |
| 20260903221257 | 25 | 254 | 14.5 | 25.7 | 0.00 | 0.00 | 0.00 | 56 | |
| 20260903221055 | 25 | 278 | 16.1 | 25.7 | 0.00 | 0.00 | 0.00 | 56 | |
| 20260903220854 | 25 | 237 | 19.3 | 25.7 | 0.00 | 0.00 | 0.00 | 56 | |
| 20260903220652 | 25 | 251 | 14.5 | 27.4 | 0.00 | 0.00 | 0.00 | 56 | |
| 20260903220249 | 25 | 270 | 12.9 | 27.4 | 0.00 | 0.00 | 0.00 | 56 | |
| 20260903220046 | 25 | 262 | 14.5 | 25.7 | 0.00 | 0.00 | 0.00 | 57 | |
| 20260903215844 | 25 | 291 | 16.1 | 25.7 | 0.00 | 0.00 | 0.00 | 56 | |
| 20260903215238 | 25 | 261 | 16.1 | 27.4 | 0.00 | 0.00 | 0.00 | 57 | |
| 20260903215036 | 25 | 288 | 16.1 | 27.4 | 0.00 | 0.00 | 0.00 | 57 | |
| 20260903214834 | 25 | 243 | 16.1 | 27.4 | 0.00 | 0.00 | 0.00 | 57 | |
| 20260903214632 | 25 | 267 | 17.7 | 25.7 | 0.00 | 0.00 | 0.00 | 56 | |
| 20260903214431 | 25 | 241 | 6.4 | 25.7 | 0.00 | 0.00 | 0.00 | 57 | |
| 20260903214228 | 25 | 264 | 9.7 | 24.1 | 0.00 | 0.00 | 0.00 | 58 | |
| 20260903214028 | 25 | 264 | 17.7 | 24.1 | 0.00 | 0.00 | 0.00 | 57 | |
| 20260903213825 | 25 | 274 | 6.4 | 24.1 | 0.00 | 0.00 | 0.00 | 57 | |
| 20260903213420 | 25 | 258 | 19.3 | 29.0 | 0.00 | 0.00 | 0.00 | 58 | |
| 20260903213218 | 25 | 272 | 14.5 | 24.1 | 0.00 | 0.00 | 0.00 | 58 | |
| 20260903213015 | 25 | 260 | 17.7 | 24.1 | 0.00 | 0.00 | 0.00 | 57 | |
| 20260903212814 | 25 | 246 | 14.5 | 24.1 | 0.00 | 0.00 | 0.00 | 56 | |
| 20260903212611 | 25 | 293 | 6.4 | 29.0 | 0.00 | 0.00 | 0.00 | 57 | |
| 20260903212411 | 25 | 223 | 14.5 | 29.0 | 0.00 | 0.00 | 0.00 | 57 | |
| 20260903212207 | 25 | 246 | 17.7 | 27.4 | 0.00 | 0.00 | 0.00 | 57 | |
| 20260903211603 | 25 | 261 | 25.7 | 25.7 | 0.00 | 0.00 | 0.00 | 58 | |
| 20260903211401 | 25 | 246 | 9.7 | 25.7 | 0.00 | 0.00 | 0.00 | 58 | |
| 20260903211159 | 25 | 253 | 22.5 | 29.0 | 0.00 | 0.00 | 0.00 | 56 | |
| 20260903210553 | 25 | 246 | 12.9 | 27.4 | 0.00 | 0.00 | 0.00 | 57 | |
| 20260903210350 | 25 | 281 | 17.7 | 27.4 | 0.00 | 0.00 | 0.00 | 56 | |
| 20260903210149 | 25 | 274 | 11.3 | 27.4 | 0.00 | 0.00 | 0.00 | 56 | |
| 20260903205945 | 25 | 275 | 14.5 | 27.4 | 0.00 | 0.00 | 0.00 | 56 | |
| 20260903205745 | 25 | 254 | 16.1 | 29.0 | 0.00 | 0.00 | 0.00 | 56 | |
| 20260903204936 | 25 | 278 | 11.3 | 37.0 | 0.00 | 0.00 | 0.00 | 57 | |
| 20260903204735 | 25 | 254 | 25.7 | 22.5 | 0.00 | 0.00 | 0.00 | 56 | |
| 20260903204534 | 26 | 279 | 19.3 | 22.5 | 0.00 | 0.00 | 0.00 | 55 | |
| 20260903204331 | 26 | 261 | 11.3 | 22.5 | 0.00 | 0.00 | 0.00 | 54 | |
| 20260903204130 | 26 | 255 | 6.4 | 27.4 | 0.00 | 0.00 | 0.00 | 55 | |
| 20260903203927 | 26 | 264 | 14.5 | 27.4 | 0.00 | 0.00 | 0.00 | 55 | |
| 20260903203724 | 25 | 265 | 16.1 | 25.7 | 0.00 | 0.00 | 0.00 | 55 | |
| 20260903203320 | 26 | 225 | 16.1 | 25.7 | 0.00 | 0.00 | 0.00 | 53 | |
| 20260903203120 | 26 | 234 | 12.9 | 27.4 | 0.00 | 0.00 | 0.00 | 53 | |
| 20260903202918 | 26 | 234 | 16.1 | 27.4 | 0.00 | 0.00 | 0.00 | 53 | |
| 20260903202716 | 26 | 268 | 12.9 | 27.4 | 0.00 | 0.00 | 0.00 | 52 | |
| 20260903202514 | 26 | 277 | 3.2 | 27.4 | 0.00 | 0.00 | 0.00 | 52 | |
| 20260903202312 | 26 | 261 | 8.0 | 27.4 | 0.00 | 0.00 | 0.00 | 52 | |
| 20260903202110 | 26 | 274 | 8.0 | 22.5 | 0.00 | 0.00 | 0.00 | 52 | |
| 20260903201908 | 26 | 244 | 24.1 | 22.5 | 0.00 | 0.00 | 0.00 | 51 | |
| 20260903201706 | 27 | 271 | 6.4 | 22.5 | 0.00 | 0.00 | 0.00 | 50 | |
| 20260903201504 | 27 | 243 | 8.0 | 22.5 | 0.00 | 0.00 | 0.00 | 50 | |
| 20260903201302 | 26 | 248 | 8.0 | 22.5 | 0.00 | 0.00 | 0.00 | 51 | |
| 20260903201058 | 26 | 257 | 11.3 | 22.5 | 0.00 | 0.00 | 0.00 | 52 | |
| 20260903200858 | 26 | 255 | 11.3 | 22.5 | 0.00 | 0.00 | 0.00 | 52 | |
| 20260903200656 | 26 | 264 | 17.7 | 24.1 | 0.00 | 0.00 | 0.00 | 51 | |
| 20260903200454 | 26 | 250 | 16.1 | 24.1 | 0.00 | 0.00 | 0.00 | 50 | |
| 20260903200252 | 26 | 296 | 12.9 | 24.1 | 0.00 | 0.00 | 0.00 | 50 | |
| 20260903195849 | 26 | 240 | 12.9 | 19.3 | 0.00 | 0.00 | 0.00 | 49 | |
| 20260903195646 | 26 | 247 | 12.9 | 19.3 | 0.00 | 0.00 | 0.00 | 50 | |
| 20260903195444 | 26 | 236 | 9.7 | 19.3 | 0.00 | 0.00 | 0.00 | 51 | |
| 20260903195241 | 26 | 264 | 14.5 | 25.7 | 0.00 | 0.00 | 0.00 | 50 | |
| 20260903195040 | 26 | 237 | 6.4 | 25.7 | 0.00 | 0.00 | 0.00 | 50 | |
| 20260903194837 | 26 | 265 | 12.9 | 25.7 | 0.00 | 0.00 | 0.00 | 50 | |
| 20260903194636 | 26 | 265 | 24.1 | 20.9 | 0.00 | 0.00 | 0.00 | 50 | |
| 20260903194231 | 26 | 241 | 14.5 | 22.5 | 0.00 | 0.00 | 0.00 | 49 | |
| 20260903194030 | 26 | 265 | 3.2 | 22.5 | 0.00 | 0.00 | 0.00 | 50 | |
| 20260903193628 | 26 | 270 | 19.3 | 24.1 | 0.00 | 0.00 | 0.00 | 49 | |
| 20260903193425 | 26 | 272 | 12.9 | 24.1 | 0.00 | 0.00 | 0.00 | 49 | |
| 20260903193019 | 26 | 254 | 20.9 | 22.5 | 0.00 | 0.00 | 0.00 | 49 | |
| 20260903192819 | 26 | 254 | 24.1 | 22.5 | 0.00 | 0.00 | 0.00 | 49 | |
| 20260903192615 | 26 | 250 | 14.5 | 24.1 | 0.00 | 0.00 | 0.00 | 49 | |
| 20260903192415 | 26 | 243 | 19.3 | 24.1 | 0.00 | 0.00 | 0.00 | 48 | |
| 20260903192213 | 26 | 239 | 14.5 | 24.1 | 0.00 | 0.00 | 0.00 | 48 | |
| 20260903192011 | 26 | 260 | 11.3 | 24.1 | 0.00 | 0.00 | 0.00 | 48 | |
| 20260903191807 | 26 | 288 | 4.8 | 24.1 | 0.00 | 0.00 | 0.00 | 47 | |
| 20260903191607 | 27 | 264 | 20.9 | 16.1 | 0.00 | 0.00 | 0.00 | 46 | |
| 20260903191405 | 27 | 278 | 12.9 | 16.1 | 0.00 | 0.00 | 0.00 | 45 | |
| 20260903191203 | 28 | 306 | 6.4 | 12.9 | 0.00 | 0.00 | 0.00 | 44 | |
| 20260903191001 | 28 | 258 | 3.2 | 12.9 | 0.00 | 0.00 | 0.00 | 44 | |
| 20260903190557 | 28 | 227 | 3.2 | 9.7 | 0.00 | 0.00 | 0.00 | 44 | |
| 20260903190356 | 28 | 281 | 11.3 | 9.7 | 0.00 | 0.00 | 0.00 | 44 | |
| 20260903190153 | 28 | 119 | 1.6 | 12.9 | 0.00 | 0.00 | 0.00 | 44 | |
| 20260903185951 | 28 | 94 | 6.4 | 12.9 | 0.00 | 0.00 | 0.00 | 44 | |
| 20260903185346 | 28 | 143 | 0.0 | 12.9 | 0.00 | 0.00 | 0.00 | 44 | |
| 20260903185144 | 28 | 104 | 6.4 | 9.7 | 0.00 | 0.00 | 0.00 | 43 | |
| 20260903184942 | 27 | 140 | 4.8 | 9.7 | 0.00 | 0.00 | 0.00 | 44 | |
| 20260903184738 | 28 | 144 | 4.8 | 8.0 | 0.00 | 0.00 | 0.00 | 44 | |
| 20260903184537 | 27 | 82 | 0.0 | 8.0 | 0.00 | 0.00 | 0.00 | 44 | |
| 20260903184336 | 27 | 160 | 1.6 | 8.0 | 0.00 | 0.00 | 0.00 | 44 | |
| 20260903184134 | 27 | 188 | 4.8 | 9.7 | 0.00 | 0.00 | 0.00 | 44 | |
| 20260903183932 | 27 | 11 | 3.2 | 9.7 | 0.00 | 0.00 | 0.00 | 45 | |
| 20260903183729 | 27 | 39 | 0.0 | 9.7 | 0.00 | 0.00 | 0.00 | 46 | |
| 20260903183528 | 27 | 336 | 1.6 | 9.7 | 0.00 | 0.00 | 0.00 | 46 | |
| 20260903183325 | 27 | 137 | 3.2 | 9.7 | 0.00 | 0.00 | 0.00 | 46 | |
| 20260903183124 | 26 | 122 | 1.6 | 8.0 | 0.00 | 0.00 | 0.00 | 46 | |
| 20260903182921 | 27 | 203 | 8.0 | 8.0 | 0.00 | 0.00 | 0.00 | 46 | |
| 20260903182718 | 27 | 168 | 3.2 | 14.5 | 0.00 | 0.00 | 0.00 | 46 | |
| 20260903182316 | 26 | 317 | 3.2 | 14.5 | 0.00 | 0.00 | 0.00 | 46 | |
| 20260903182114 | 26 | 229 | 6.4 | 12.9 | 0.00 | 0.00 | 0.00 | 47 | |
| 20260903181912 | 26 | 202 | 4.8 | 12.9 | 0.00 | 0.00 | 0.00 | 48 | |
| 20260903181710 | 26 | 102 | 0.0 | 12.9 | 0.00 | 0.00 | 0.00 | 48 | |
| 20260903181508 | 26 | 136 | 1.6 | 12.9 | 0.00 | 0.00 | 0.00 | 47 | |
| 20260903181306 | 26 | 92 | 6.4 | 12.9 | 0.00 | 0.00 | 0.00 | 47 | |
| 20260903181104 | 26 | 154 | 6.4 | 12.9 | 0.00 | 0.00 | 0.00 | 47 | |
| 20260903180700 | 26 | 130 | 6.4 | 9.7 | 0.00 | 0.00 | 0.00 | 48 | |
| 20260903180458 | 26 | 151 | 9.7 | 9.7 | 0.00 | 0.00 | 0.00 | 48 | |
| 20260903180256 | 26 | 150 | 1.6 | 9.7 | 0.00 | 0.00 | 0.00 | 48 | |
| 20260903180055 | 26 | 118 | 4.8 | 9.7 | 0.00 | 0.00 | 0.00 | 48 | |
| 20260903175853 | 26 | 42 | 0.0 | 9.7 | 0.00 | 0.00 | 0.00 | 48 | |
| 20260903175650 | 26 | 42 | 0.0 | 9.7 | 0.00 | 0.00 | 0.00 | 48 | |
| 20260903175448 | 26 | 88 | 4.8 | 9.7 | 0.00 | 0.00 | 0.00 | 48 | |
| 20260903175247 | 26 | 98 | 1.6 | 9.7 | 0.00 | 0.00 | 0.00 | 49 | |
| 20260903175044 | 26 | 116 | 0.0 | 11.3 | 0.00 | 0.00 | 0.00 | 50 | |
| 20260903174842 | 26 | 119 | 4.8 | 11.3 | 0.00 | 0.00 | 0.00 | 49 | |
| 20260903174641 | 26 | 82 | 1.6 | 6.4 | 0.00 | 0.00 | 0.00 | 50 | |
| 20260903174439 | 26 | 66 | 1.6 | 6.4 | 0.00 | 0.00 | 0.00 | 51 | |
| 20260903174236 | 25 | 49 | 0.0 | 1.6 | 0.00 | 0.00 | 0.00 | 52 | |
| 20260903173833 | 25 | 165 | 1.6 | 1.6 | 0.00 | 0.00 | 0.00 | 53 | |
| 20260903173631 | 25 | 1 | 0.0 | 8.0 | 0.00 | 0.00 | 0.00 | 54 | |
| 20260903173427 | 25 | 274 | 0.0 | 8.0 | 0.00 | 0.00 | 0.00 | 55 | |
| 20260903173227 | 25 | 274 | 0.0 | 14.5 | 0.00 | 0.00 | 0.00 | 54 | |
| 20260903173024 | 25 | 286 | 6.4 | 14.5 | 0.00 | 0.00 | 0.00 | 52 | |
| 20260903172821 | 25 | 36 | 0.0 | 14.5 | 0.00 | 0.00 | 0.00 | 53 | |
| 20260903172621 | 25 | 68 | 1.6 | 9.7 | 0.00 | 0.00 | 0.00 | 53 | |
| 20260903172419 | 25 | 116 | 4.8 | 9.7 | 0.00 | 0.00 | 0.00 | 54 | |
| 20260903172215 | 25 | 97 | 3.2 | 6.4 | 0.00 | 0.00 | 0.00 | 54 | |
| 20260903172015 | 25 | 91 | 4.8 | 6.4 | 0.00 | 0.00 | 0.00 | 54 | |
| 20260903171813 | 25 | 43 | 0.0 | 6.4 | 0.00 | 0.00 | 0.00 | 54 | |
| 20260903171610 | 25 | 355 | 0.0 | 9.7 | 0.00 | 0.00 | 0.00 | 54 | |
| 20260903171409 | 25 | 167 | 0.0 | 9.7 | 0.00 | 0.00 | 0.00 | 54 | |
| 20260903170804 | 25 | 37 | 1.6 | 4.8 | 0.00 | 0.00 | 0.00 | 54 | |
| 20260903170601 | 25 | 181 | 3.2 | 3.2 | 0.00 | 0.00 | 0.00 | 54 | |
| 20260903170358 | 24 | 185 | 3.2 | 3.2 | 0.00 | 0.00 | 0.00 | 56 | |
| 20260903170157 | 24 | 54 | 0.0 | 8.0 | 0.00 | 0.00 | 0.00 | 56 | |
| 20260903165953 | 24 | 49 | 1.6 | 8.0 | 0.00 | 0.00 | 0.00 | 57 | |
| 20260903165753 | 24 | 175 | 1.6 | 8.0 | 0.00 | 0.00 | 0.00 | 56 | |
| 20260903165552 | 23 | 66 | 0.0 | 11.3 | 0.00 | 0.00 | 0.00 | 57 | |
| 20260903165349 | 23 | 57 | 0.0 | 11.3 | 0.00 | 0.00 | 0.00 | 58 | |
| 20260903164945 | 23 | 113 | 4.8 | 6.4 | 0.00 | 0.00 | 0.00 | 58 | |
| 20260903164542 | 23 | 26 | 0.0 | 8.0 | 0.00 | 0.00 | 0.00 | 58 | |
| 20260903164340 | 23 | 125 | 6.4 | 8.0 | 0.00 | 0.00 | 0.00 | 57 | |
| 20260903164136 | 23 | 160 | 0.0 | 8.0 | 0.00 | 0.00 | 0.00 | 57 | |
| 20260903163936 | 23 | 94 | 0.0 | 8.0 | 0.00 | 0.00 | 0.00 | 57 | |
| 20260903163734 | 23 | 82 | 3.2 | 8.0 | 0.00 | 0.00 | 0.00 | 58 | |
| 20260903163532 | 23 | 226 | 1.6 | 8.0 | 0.00 | 0.00 | 0.00 | 57 | |
| 20260903163328 | 23 | 75 | 6.4 | 8.0 | 0.00 | 0.00 | 0.00 | 59 | |
| 20260903163128 | 23 | 146 | 0.0 | 14.5 | 0.00 | 0.00 | 0.00 | 59 | |
| 20260903162926 | 23 | 122 | 1.6 | 14.5 | 0.00 | 0.00 | 0.00 | 60 | |
| 20260903162722 | 22 | 111 | 0.0 | 9.7 | 0.00 | 0.00 | 0.00 | 59 | |
| 20260903162522 | 22 | 119 | 4.8 | 9.7 | 0.00 | 0.00 | 0.00 | 59 | |
| 20260903162320 | 22 | 143 | 1.6 | 9.7 | 0.00 | 0.00 | 0.00 | 60 | |
| 20260903162118 | 22 | 153 | 3.2 | 12.9 | 0.00 | 0.00 | 0.00 | 60 | |
| 20260903161916 | 22 | 142 | 3.2 | 12.9 | 0.00 | 0.00 | 0.00 | 61 | |
| 20260903160905 | 22 | 142 | 6.4 | 12.9 | 0.00 | 0.00 | 0.00 | 64 | |
| 20260903160703 | 21 | 106 | 9.7 | 11.3 | 0.00 | 0.00 | 0.00 | 63 | |
| 20260903160503 | 21 | 78 | 1.6 | 11.3 | 0.00 | 0.00 | 0.00 | 64 | |
| 20260903160301 | 22 | 113 | 6.4 | 11.3 | 0.00 | 0.00 | 0.00 | 65 | |
| 20260903160057 | 21 | 133 | 6.4 | 12.9 | 0.00 | 0.00 | 0.00 | 65 | |
| 20260903155855 | 21 | 92 | 8.0 | 12.9 | 0.00 | 0.00 | 0.00 | 65 | |
| 20260903155655 | 21 | 146 | 4.8 | 12.9 | 0.00 | 0.00 | 0.00 | 67 | |
| 20260903155452 | 21 | 168 | 6.4 | 12.9 | 0.00 | 0.00 | 0.00 | 67 | |
| 20260903155249 | 21 | 105 | 6.4 | 12.9 | 0.00 | 0.00 | 0.00 | 67 | |
| 20260903155048 | 21 | 104 | 4.8 | 9.7 | 0.00 | 0.00 | 0.00 | 67 | |
| 20260903154847 | 21 | 109 | 8.0 | 9.7 | 0.00 | 0.00 | 0.00 | 67 | |
| 20260903154441 | 21 | 127 | 3.2 | 9.7 | 0.00 | 0.00 | 0.00 | 67 | |
| 20260903154239 | 20 | 165 | 4.8 | 8.0 | 0.00 | 0.00 | 0.00 | 68 | |
| 20260903154042 | 20 | 156 | 1.6 | 8.0 | 0.00 | 0.00 | 0.00 | 68 | |
| 20260903153835 | 20 | 106 | 4.8 | 8.0 | 0.00 | 0.00 | 0.00 | 69 | |
| 20260903153433 | 20 | 90 | 0.0 | 3.2 | 0.00 | 0.00 | 0.00 | 68 | |
| 20260903153231 | 20 | 132 | 1.6 | 6.4 | 0.00 | 0.00 | 0.00 | 69 | |
| 20260903153028 | 20 | 143 | 1.6 | 6.4 | 0.00 | 0.00 | 0.00 | 69 | |
| 20260903152734 | 20 | 130 | 3.2 | 4.8 | 0.00 | 0.00 | 0.00 | 69 | |
| 20260903152624 | 20 | 64 | 3.2 | 4.8 | 0.00 | 0.00 | 0.00 | 69 | |
| 20260903152422 | 20 | 130 | 3.2 | 4.8 | 0.00 | 0.00 | 0.00 | 69 | |
| 20260903152020 | 19 | 135 | 1.6 | 4.8 | 0.00 | 0.00 | 0.00 | 69 | |
| 20260903151818 | 19 | 151 | 1.6 | 4.8 | 0.00 | 0.00 | 0.00 | 69 | |
| 20260903151614 | 18 | 122 | 3.2 | 3.2 | 0.00 | 0.00 | 0.00 | 69 | |
| 20260903151412 | 18 | 150 | 1.6 | 3.2 | 0.00 | 0.00 | 0.00 | 70 | |
| 20260903151211 | 18 | 132 | 1.6 | 0.0 | 0.00 | 0.00 | 0.00 | 71 | |
| 20260903151010 | 18 | 106 | 0.0 | 0.0 | 0.00 | 0.00 | 0.00 | 72 | |
| 20260903150807 | 17 | 106 | 0.0 | 0.0 | 0.00 | 0.00 | 0.00 | 72 | |
| 20260903150605 | 17 | 106 | 0.0 | 0.0 | 0.00 | 0.00 | 0.00 | 73 | |
| 20260903150405 | 17 | 106 | 0.0 | 0.0 | 0.00 | 0.00 | 0.00 | 73 | |
| 20260903150001 | 17 | 106 | 0.0 | 0.0 | 0.00 | 0.00 | 0.00 | 75 | |
| 20260903145759 | 16 | 106 | 0.0 | 0.0 | 0.00 | 0.00 | 0.00 | 74 | |
| 20260903145557 | 16 | 106 | 0.0 | 0.0 | 0.00 | 0.00 | 0.00 | 75 | |
| 20260903145356 | 16 | 106 | 0.0 | 0.0 | 0.00 | 0.00 | 0.00 | 75 | |
| 20260903144950 | 16 | 106 | 0.0 | 0.0 | 0.00 | 0.00 | 0.00 | 75 | |
| 20260903144548 | 16 | 106 | 0.0 | 1.6 | 0.00 | 0.00 | 0.00 | 75 | |
| 20260903144346 | 16 | 106 | 0.0 | 1.6 | 0.00 | 0.00 | 0.00 | 75 | |
| 20260903144144 | 16 | 106 | 0.0 | 3.2 | 0.00 | 0.00 | 0.00 | 75 | |
| 20260903143942 | 15 | 106 | 0.0 | 3.2 | 0.00 | 0.00 | 0.00 | 76 | |
| 20260903143740 | 15 | 108 | 0.0 | 0.0 | 0.00 | 0.00 | 0.00 | 77 | |
| 20260903143538 | 15 | 71 | 0.0 | 0.0 | 0.00 | 0.00 | 0.00 | 77 | |
| 20260903142932 | 15 | 71 | 0.0 | 0.0 | 0.00 | 0.00 | 0.00 | 80 | |
| 20260903142731 | 15 | 71 | 0.0 | 0.0 | 0.00 | 0.00 | 0.00 | 80 | |
| 20260903142528 | 15 | 71 | 0.0 | 0.0 | 0.00 | 0.00 | 0.00 | 80 | |
| 20260903142325 | 14 | 71 | 0.0 | 0.0 | 0.00 | 0.00 | 0.00 | 81 | |
| 20260903142306 | 14 | 71 | 0.0 | 0.0 | 0.00 | 0.00 | 0.00 | 80 | |
| 20260903142124 | 14 | 71 | 0.0 | 0.0 | 0.00 | 0.00 | 0.00 | 80 | |
| 20260903141719 | 14 | 71 | 0.0 | 0.0 | 0.00 | 0.00 | 0.00 | 81 | |
| 20260903141315 | 14 | 71 | 0.0 | 0.0 | 0.00 | 0.00 | 0.00 | 82 | |
| 20260903141115 | 14 | 71 | 0.0 | 0.0 | 0.00 | 0.00 | 0.00 | 82 | |
| 20260903140709 | 14 | 71 | 0.0 | 0.0 | 0.00 | 0.00 | 0.00 | 82 | |
| 20260903140105 | 14 | 71 | 0.0 | 0.0 | 0.00 | 0.00 | 0.00 | 83 | |
| 20260903135904 | 14 | 71 | 0.0 | 0.0 | 0.00 | 0.00 | 0.00 | 83 | |
| 20260903135702 | 14 | 71 | 0.0 | 0.0 | 0.00 | 0.00 | 0.00 | 83 | |
| 20260903135500 | 14 | 71 | 0.0 | 0.0 | 0.00 | 0.00 | 0.00 | 83 | |
| 20260903135258 | 13 | 71 | 0.0 | 0.0 | 0.00 | 0.00 | 0.00 | 83 | |
| 20260903135054 | 13 | 71 | 0.0 | 0.0 | 0.00 | 0.00 | 0.00 | 82 | |
| 20260903134852 | 14 | 71 | 0.0 | 0.0 | 0.00 | 0.00 | 0.00 | 82 | |
| 20260903134248 | 14 | 71 | 0.0 | 0.0 | 0.00 | 0.00 | 0.00 | 82 | |
| 20260903134046 | 13 | 71 | 0.0 | 0.0 | 0.00 | 0.00 | 0.00 | 82 | |
| 20260903133843 | 14 | 71 | 0.0 | 0.0 | 0.00 | 0.00 | 0.00 | 82 | |
| 20260903133641 | 14 | 71 | 0.0 | 0.0 | 0.00 | 0.00 | 0.00 | 82 | |
| 20260903133441 | 14 | 71 | 0.0 | 0.0 | 0.00 | 0.00 | 0.00 | 82 | |
| 20260903133239 | 14 | 71 | 0.0 | 0.0 | 0.00 | 0.00 | 0.00 | 82 | |
| 20260903132633 | 14 | 71 | 0.0 | 0.0 | 0.00 | 0.00 | 0.00 | 81 | |
| 20260903132431 | 14 | 71 | 0.0 | 0.0 | 0.00 | 0.00 | 0.00 | 81 | |
| 20260903132230 | 14 | 71 | 0.0 | 0.0 | 0.00 | 0.00 | 0.00 | 81 | |
| 20260903132027 | 14 | 71 | 0.0 | 0.0 | 0.00 | 0.00 | 0.00 | 81 | |
| 20260903131824 | 14 | 71 | 0.0 | 0.0 | 0.00 | 0.00 | 0.00 | 81 | |
| 20260903131422 | 14 | 71 | 0.0 | 0.0 | 0.00 | 0.00 | 0.00 | 80 | |
| 20260903131218 | 14 | 71 | 0.0 | 0.0 | 0.00 | 0.00 | 0.00 | 80 | |
| 20260903131017 | 14 | 71 | 0.0 | 0.0 | 0.00 | 0.00 | 0.00 | 80 | |
| 20260903130612 | 14 | 71 | 0.0 | 0.0 | 0.00 | 0.00 | 0.00 | 80 | |
| 20260903130410 | 15 | 71 | 0.0 | 0.0 | 0.00 | 0.00 | 0.00 | 80 | |
| 20260903130211 | 15 | 71 | 0.0 | 0.0 | 0.00 | 0.00 | 0.00 | 80 | |
| 20260903130007 | 15 | 71 | 0.0 | 0.0 | 0.00 | 0.00 | 0.00 | 80 | |
| 20260903125806 | 15 | 71 | 0.0 | 0.0 | 0.00 | 0.00 | 0.00 | 80 | |
| 20260903125401 | 15 | 71 | 0.0 | 1.6 | 0.00 | 0.00 | 0.00 | 80 | |
| 20260903124959 | 15 | 71 | 0.0 | 4.8 | 0.00 | 0.00 | 0.00 | 80 | |
| 20260903124755 | 15 | 90 | 0.0 | 4.8 | 0.00 | 0.00 | 0.00 | 80 | |
| 20260903124555 | 15 | 78 | 0.0 | 4.8 | 0.00 | 0.00 | 0.00 | 80 | |
| 20260903124353 | 15 | 78 | 0.0 | 4.8 | 0.00 | 0.00 | 0.00 | 80 | |
| 20260903124151 | 15 | 78 | 0.0 | 4.8 | 0.00 | 0.00 | 0.00 | 80 | |
| 20260903123949 | 15 | 99 | 3.2 | 4.8 | 0.00 | 0.00 | 0.00 | 80 | |
| 20260903123746 | 15 | 106 | 3.2 | 4.8 | 0.00 | 0.00 | 0.00 | 80 | |
| 20260903123342 | 15 | 64 | 0.0 | 4.8 | 0.00 | 0.00 | 0.00 | 80 | |
| 20260903123142 | 15 | 64 | 0.0 | 6.4 | 0.00 | 0.00 | 0.00 | 80 | |
| 20260903122940 | 15 | 111 | 1.6 | 6.4 | 0.00 | 0.00 | 0.00 | 80 | |
| 20260903122738 | 15 | 112 | 4.8 | 6.4 | 0.00 | 0.00 | 0.00 | 80 | |
| 20260903122536 | 15 | 109 | 1.6 | 6.4 | 0.00 | 0.00 | 0.00 | 81 | |
| 20260903122332 | 15 | 122 | 1.6 | 6.4 | 0.00 | 0.00 | 0.00 | 81 | |
| 20260903121930 | 14 | 105 | 4.8 | 0.0 | 0.00 | 0.00 | 0.00 | 81 | |
| 20260903121727 | 14 | 52 | 0.0 | 3.2 | 0.00 | 0.00 | 0.00 | 81 | |
| 20260903121526 | 14 | 52 | 0.0 | 3.2 | 0.00 | 0.00 | 0.00 | 81 | |
| 20260903121325 | 14 | 52 | 0.0 | 3.2 | 0.00 | 0.00 | 0.00 | 81 | |
| 20260903121123 | 14 | 52 | 0.0 | 0.0 | 0.00 | 0.00 | 0.00 | 81 | |
| 20260903120921 | 14 | 63 | 0.0 | 0.0 | 0.00 | 0.00 | 0.00 | 81 | |
| 20260903120719 | 14 | 63 | 0.0 | 0.0 | 0.00 | 0.00 | 0.00 | 81 | |
| 20260903120517 | 14 | 63 | 0.0 | 0.0 | 0.00 | 0.00 | 0.00 | 81 | |
| 20260903120313 | 14 | 63 | 0.0 | 0.0 | 0.00 | 0.00 | 0.00 | 81 | |
| 20260903120114 | 14 | 63 | 0.0 | 0.0 | 0.00 | 0.00 | 0.00 | 81 | |
| 20260903115911 | 14 | 63 | 0.0 | 0.0 | 0.00 | 0.00 | 0.00 | 81 | |
| 20260903115709 | 14 | 63 | 0.0 | 0.0 | 0.00 | 0.00 | 0.00 | 80 | |
| 20260903115306 | 15 | 63 | 0.0 | 0.0 | 0.00 | 0.00 | 0.00 | 79 | |
| 20260903115102 | 15 | 63 | 0.0 | 0.0 | 0.00 | 0.00 | 0.00 | 79 | |
| 20260903114700 | 15 | 63 | 0.0 | 0.0 | 0.00 | 0.00 | 0.00 | 79 | |
| 20260903114458 | 15 | 63 | 0.0 | 0.0 | 0.00 | 0.00 | 0.00 | 79 | |
| 20260903114054 | 15 | 63 | 0.0 | 0.0 | 0.00 | 0.00 | 0.00 | 80 | |
| 20260903113853 | 15 | 63 | 0.0 | 0.0 | 0.00 | 0.00 | 0.00 | 80 | |
| 20260903113650 | 15 | 63 | 0.0 | 0.0 | 0.00 | 0.00 | 0.00 | 80 | |
| 20260903113448 | 15 | 63 | 0.0 | 0.0 | 0.00 | 0.00 | 0.00 | 80 | |
| 20260903113246 | 15 | 63 | 0.0 | 0.0 | 0.00 | 0.00 | 0.00 | 80 | |
| 20260903113045 | 15 | 63 | 0.0 | 0.0 | 0.00 | 0.00 | 0.00 | 80 | |
| 20260903112843 | 15 | 63 | 0.0 | 0.0 | 0.00 | 0.00 | 0.00 | 80 | |
| 20260903112437 | 15 | 63 | 0.0 | 0.0 | 0.00 | 0.00 | 0.00 | 79 | |
| 20260903112237 | 15 | 63 | 0.0 | 0.0 | 0.00 | 0.00 | 0.00 | 79 | |
| 20260903112033 | 15 | 63 | 0.0 | 0.0 | 0.00 | 0.00 | 0.00 | 78 | |
| 20260903111833 | 15 | 63 | 0.0 | 0.0 | 0.00 | 0.00 | 0.00 | 79 | |
| 20260903111630 | 15 | 63 | 0.0 | 0.0 | 0.00 | 0.00 | 0.00 | 78 | |
| 20260903111429 | 15 | 63 | 0.0 | 0.0 | 0.00 | 0.00 | 0.00 | 79 | |
| 20260903111227 | 15 | 63 | 0.0 | 0.0 | 0.00 | 0.00 | 0.00 | 79 | |
| 20260903111024 | 15 | 63 | 0.0 | 0.0 | 0.00 | 0.00 | 0.00 | 79 | |
| 20260903110823 | 15 | 63 | 0.0 | 0.0 | 0.00 | 0.00 | 0.00 | 79 | |
| 20260903110622 | 15 | 63 | 0.0 | 0.0 | 0.00 | 0.00 | 0.00 | 78 | |
| 20260903110418 | 15 | 63 | 0.0 | 0.0 | 0.00 | 0.00 | 0.00 | 79 | |
| 20260903110217 | 15 | 63 | 0.0 | 0.0 | 0.00 | 0.00 | 0.00 | 79 | |
| 20260903110014 | 15 | 63 | 0.0 | 0.0 | 0.00 | 0.00 | 0.00 | 79 | |
| 20260903105812 | 15 | 63 | 0.0 | 0.0 | 0.00 | 0.00 | 0.00 | 80 | |
| 20260903105610 | 15 | 63 | 0.0 | 0.0 | 0.00 | 0.00 | 0.00 | 80 | |
| 20260903105409 | 15 | 63 | 0.0 | 0.0 | 0.00 | 0.00 | 0.00 | 81 | |
| 20260903105005 | 14 | 63 | 0.0 | 0.0 | 0.00 | 0.00 | 0.00 | 81 | |
| 20260903104803 | 14 | 63 | 0.0 | 0.0 | 0.00 | 0.00 | 0.00 | 82 | |
| 20260903104601 | 14 | 63 | 0.0 | 0.0 | 0.00 | 0.00 | 0.00 | 81 | |
| 20260903104359 | 14 | 63 | 0.0 | 0.0 | 0.00 | 0.00 | 0.00 | 81 | |
| 20260903104159 | 14 | 63 | 0.0 | 4.8 | 0.00 | 0.00 | 0.00 | 81 | |
| 20260903103958 | 14 | 63 | 0.0 | 4.8 | 0.00 | 0.00 | 0.00 | 81 | |
| 20260903103755 | 14 | 63 | 0.0 | 4.8 | 0.00 | 0.00 | 0.00 | 81 | |
| 20260903103553 | 14 | 109 | 1.6 | 0.0 | 0.00 | 0.00 | 0.00 | 81 | |
| 20260903103351 | 14 | 78 | 0.0 | 0.0 | 0.00 | 0.00 | 0.00 | 82 | |
| 20260903103150 | 14 | 78 | 0.0 | 0.0 | 0.00 | 0.00 | 0.00 | 82 | |
| 20260903102948 | 14 | 78 | 0.0 | 0.0 | 0.00 | 0.00 | 0.00 | 82 | |
| 20260903102745 | 14 | 78 | 0.0 | 0.0 | 0.00 | 0.00 | 0.00 | 82 | |
| 20260903102543 | 14 | 78 | 0.0 | 0.0 | 0.00 | 0.00 | 0.00 | 82 | |
| 20260903102140 | 14 | 78 | 0.0 | 0.0 | 0.00 | 0.00 | 0.00 | 82 | |
| 20260903101736 | 14 | 78 | 0.0 | 0.0 | 0.00 | 0.00 | 0.00 | 82 | |
| 20260903101534 | 14 | 78 | 0.0 | 0.0 | 0.00 | 0.00 | 0.00 | 82 | |
| 20260903101332 | 14 | 78 | 0.0 | 0.0 | 0.00 | 0.00 | 0.00 | 81 | |
| 20260903101130 | 14 | 78 | 0.0 | 0.0 | 0.00 | 0.00 | 0.00 | 81 | |
| 20260903100928 | 15 | 78 | 0.0 | 0.0 | 0.00 | 0.00 | 0.00 | 81 | |
| 20260903100727 | 15 | 78 | 0.0 | 0.0 | 0.00 | 0.00 | 0.00 | 81 | |
| 20260903100526 | 15 | 78 | 0.0 | 0.0 | 0.00 | 0.00 | 0.00 | 81 | |
| 20260903100121 | 15 | 78 | 0.0 | 0.0 | 0.00 | 0.00 | 0.00 | 81 | |
| 20260903095917 | 15 | 78 | 0.0 | 0.0 | 0.00 | 0.00 | 0.00 | 81 | |
| 20260903095717 | 15 | 78 | 0.0 | 1.6 | 0.00 | 0.00 | 0.00 | 81 | |
| 20260903095513 | 15 | 78 | 0.0 | 1.6 | 0.00 | 0.00 | 0.00 | 81 | |
| 20260903095314 | 15 | 78 | 0.0 | 1.6 | 0.00 | 0.00 | 0.00 | 80 | |
| 20260903095112 | 15 | 112 | 0.0 | 0.0 | 0.00 | 0.00 | 0.00 | 80 | |
| 20260903094908 | 15 | 275 | 0.0 | 0.0 | 0.00 | 0.00 | 0.00 | 81 | |
| 20260903094707 | 15 | 275 | 0.0 | 0.0 | 0.00 | 0.00 | 0.00 | 81 | |
| 20260903094504 | 15 | 275 | 0.0 | 0.0 | 0.00 | 0.00 | 0.00 | 81 | |
| 20260903094302 | 15 | 275 | 0.0 | 0.0 | 0.00 | 0.00 | 0.00 | 81 | |
| 20260903094102 | 15 | 275 | 0.0 | 0.0 | 0.00 | 0.00 | 0.00 | 81 | |
| 20260903093858 | 15 | 275 | 0.0 | 0.0 | 0.00 | 0.00 | 0.00 | 81 | |
| 20260903093657 | 15 | 275 | 0.0 | 0.0 | 0.00 | 0.00 | 0.00 | 81 | |
| 20260903093252 | 15 | 275 | 0.0 | 0.0 | 0.00 | 0.00 | 0.00 | 81 | |
| 20260903092849 | 15 | 275 | 0.0 | 0.0 | 0.00 | 0.00 | 0.00 | 81 | |
| 20260903092647 | 15 | 275 | 0.0 | 0.0 | 0.00 | 0.00 | 0.00 | 80 | |
| 20260903092445 | 15 | 275 | 0.0 | 0.0 | 0.00 | 0.00 | 0.00 | 80 | |
| 20260903092244 | 15 | 275 | 0.0 | 0.0 | 0.00 | 0.00 | 0.00 | 80 | |
| 20260903092041 | 15 | 275 | 0.0 | 0.0 | 0.00 | 0.00 | 0.00 | 80 | |
| 20260903091841 | 15 | 275 | 0.0 | 0.0 | 0.00 | 0.00 | 0.00 | 80 | |
| 20260903091637 | 15 | 275 | 0.0 | 0.0 | 0.00 | 0.00 | 0.00 | 79 | |
| 20260903091437 | 15 | 275 | 0.0 | 0.0 | 0.00 | 0.00 | 0.00 | 79 | |
| 20260903091233 | 15 | 275 | 0.0 | 0.0 | 0.00 | 0.00 | 0.00 | 80 | |
| 20260903091031 | 15 | 275 | 0.0 | 0.0 | 0.00 | 0.00 | 0.00 | 80 | |
| 20260903090830 | 15 | 275 | 0.0 | 0.0 | 0.00 | 0.00 | 0.00 | 81 | |
| 20260903090629 | 15 | 275 | 0.0 | 0.0 | 0.00 | 0.00 | 0.00 | 81 | |
| 20260903090427 | 15 | 275 | 0.0 | 0.0 | 0.00 | 0.00 | 0.00 | 82 | |
| 20260903090224 | 15 | 275 | 0.0 | 0.0 | 0.00 | 0.00 | 0.00 | 82 | |
| 20260903090024 | 15 | 275 | 0.0 | 0.0 | 0.00 | 0.00 | 0.00 | 82 | |
| 20260903085820 | 15 | 275 | 0.0 | 0.0 | 0.00 | 0.00 | 0.00 | 82 | |
| 20260903085620 | 15 | 275 | 0.0 | 0.0 | 0.00 | 0.00 | 0.00 | 82 | |
| 20260903085416 | 15 | 275 | 0.0 | 0.0 | 0.00 | 0.00 | 0.00 | 82 | |
| 20260903085214 | 15 | 275 | 0.0 | 0.0 | 0.00 | 0.00 | 0.00 | 81 | |
| 20260903085012 | 15 | 275 | 0.0 | 0.0 | 0.00 | 0.00 | 0.00 | 81 | |
| 20260903084812 | 15 | 275 | 0.0 | 0.0 | 0.00 | 0.00 | 0.00 | 81 | |
| 20260903084611 | 15 | 275 | 0.0 | 0.0 | 0.00 | 0.00 | 0.00 | 80 | |
| 20260903084205 | 15 | 275 | 0.0 | 0.0 | 0.00 | 0.00 | 0.00 | 80 | |
| 20260903083801 | 15 | 275 | 0.0 | 0.0 | 0.00 | 0.00 | 0.00 | 79 | |
| 20260903083559 | 15 | 275 | 0.0 | 0.0 | 0.00 | 0.00 | 0.00 | 79 | |
| 20260903083155 | 15 | 275 | 0.0 | 0.0 | 0.00 | 0.00 | 0.00 | 79 | |
| 20260903082953 | 15 | 275 | 0.0 | 0.0 | 0.00 | 0.00 | 0.00 | 79 | |
| 20260903082751 | 15 | 275 | 0.0 | 0.0 | 0.00 | 0.00 | 0.00 | 80 | |
| 20260903082551 | 15 | 275 | 0.0 | 0.0 | 0.00 | 0.00 | 0.00 | 80 | |
| 20260903082349 | 15 | 275 | 0.0 | 0.0 | 0.00 | 0.00 | 0.00 | 81 | |
| 20260903082146 | 15 | 275 | 0.0 | 0.0 | 0.00 | 0.00 | 0.00 | 81 | |
| 20260903081945 | 15 | 275 | 0.0 | 0.0 | 0.00 | 0.00 | 0.00 | 82 | |
| 20260903081744 | 15 | 275 | 0.0 | 0.0 | 0.00 | 0.00 | 0.00 | 82 | |
| 20260903081540 | 15 | 275 | 0.0 | 0.0 | 0.00 | 0.00 | 0.00 | 83 | |
| 20260903081338 | 15 | 275 | 0.0 | 0.0 | 0.00 | 0.00 | 0.00 | 83 | |
| 20260903081138 | 15 | 275 | 0.0 | 0.0 | 0.00 | 0.00 | 0.00 | 83 | |
| 20260903080936 | 15 | 275 | 0.0 | 0.0 | 0.00 | 0.00 | 0.00 | 83 | |
| 20260903080732 | 15 | 275 | 0.0 | 0.0 | 0.00 | 0.00 | 0.00 | 83 | |
| 20260903080532 | 16 | 275 | 0.0 | 0.0 | 0.00 | 0.00 | 0.00 | 84 | |
| 20260903080329 | 16 | 275 | 0.0 | 0.0 | 0.00 | 0.00 | 0.00 | 84 | |
| 20260903080127 | 16 | 275 | 0.0 | 0.0 | 0.00 | 0.00 | 0.00 | 84 | |
| 20260903075928 | 16 | 275 | 0.0 | 0.0 | 0.00 | 0.00 | 0.00 | 84 | |
| 20260903075723 | 16 | 275 | 0.0 | 0.0 | 0.00 | 0.00 | 0.00 | 84 | |
| 20260903075521 | 16 | 275 | 0.0 | 0.0 | 0.00 | 0.00 | 0.00 | 85 | |
| 20260903075319 | 16 | 275 | 0.0 | 0.0 | 0.00 | 0.00 | 0.00 | 85 | |
| 20260903075117 | 16 | 275 | 0.0 | 0.0 | 0.00 | 0.00 | 0.00 | 84 | |
| 20260903074917 | 16 | 275 | 0.0 | 0.0 | 0.00 | 0.00 | 0.00 | 84 | |
| 20260903074713 | 15 | 275 | 0.0 | 0.0 | 0.00 | 0.00 | 0.00 | 84 | |
| 20260903074511 | 15 | 275 | 0.0 | 0.0 | 0.00 | 0.00 | 0.00 | 83 | |
| 20260903074110 | 15 | 275 | 0.0 | 0.0 | 0.00 | 0.00 | 0.00 | 82 | |
| 20260903073906 | 16 | 275 | 0.0 | 0.0 | 0.00 | 0.00 | 0.00 | 82 | |
| 20260903073704 | 16 | 275 | 0.0 | 0.0 | 0.00 | 0.00 | 0.00 | 82 | |
| 20260903073502 | 16 | 275 | 0.0 | 0.0 | 0.00 | 0.00 | 0.00 | 82 | |
| 20260903073302 | 16 | 275 | 0.0 | 0.0 | 0.00 | 0.00 | 0.00 | 83 | |
| 20260903073100 | 16 | 275 | 0.0 | 0.0 | 0.00 | 0.00 | 0.00 | 83 | |
| 20260903072858 | 16 | 275 | 0.0 | 0.0 | 0.00 | 0.00 | 0.00 | 83 | |
| 20260903072656 | 16 | 275 | 0.0 | 0.0 | 0.00 | 0.00 | 0.00 | 82 | |
| 20260903072454 | 16 | 275 | 0.0 | 0.0 | 0.00 | 0.00 | 0.00 | 82 | |
| 20260903072252 | 16 | 275 | 0.0 | 0.0 | 0.00 | 0.00 | 0.00 | 82 | |
| 20260903072050 | 16 | 275 | 0.0 | 0.0 | 0.00 | 0.00 | 0.00 | 82 | |
| 20260903071847 | 16 | 275 | 0.0 | 0.0 | 0.00 | 0.00 | 0.00 | 81 | |
| 20260903071444 | 16 | 275 | 0.0 | 0.0 | 0.00 | 0.00 | 0.00 | 81 | |
| 20260903071243 | 16 | 275 | 0.0 | 0.0 | 0.00 | 0.00 | 0.00 | 80 | |
| 20260903071039 | 16 | 275 | 0.0 | 0.0 | 0.00 | 0.00 | 0.00 | 80 | |
| 20260903070839 | 16 | 275 | 0.0 | 0.0 | 0.00 | 0.00 | 0.00 | 80 | |
| 20260903070637 | 16 | 275 | 0.0 | 0.0 | 0.00 | 0.00 | 0.00 | 80 | |
| 20260903070435 | 16 | 275 | 0.0 | 0.0 | 0.00 | 0.00 | 0.00 | 80 | |
| 20260903070233 | 16 | 275 | 0.0 | 0.0 | 0.00 | 0.00 | 0.00 | 79 | |
| 20260903070031 | 16 | 275 | 0.0 | 0.0 | 0.00 | 0.00 | 0.00 | 79 | |
| 20260903065829 | 16 | 275 | 0.0 | 0.0 | 0.00 | 0.00 | 0.00 | 79 | |
| 20260903065626 | 16 | 275 | 0.0 | 0.0 | 0.00 | 0.00 | 0.00 | 79 | |
| 20260903065224 | 16 | 275 | 0.0 | 0.0 | 0.00 | 0.00 | 0.00 | 79 | |
| 20260903065020 | 16 | 275 | 0.0 | 0.0 | 0.00 | 0.00 | 0.00 | 79 | |
| 20260903064818 | 16 | 275 | 0.0 | 0.0 | 0.00 | 0.00 | 0.00 | 79 | |
| 20260903064616 | 16 | 275 | 0.0 | 0.0 | 0.00 | 0.00 | 0.00 | 79 | |
| 20260903064414 | 16 | 275 | 0.0 | 0.0 | 0.00 | 0.00 | 0.00 | 80 | |
| 20260903064212 | 16 | 275 | 0.0 | 0.0 | 0.00 | 0.00 | 0.00 | 80 | |
| 20260903063809 | 16 | 275 | 0.0 | 0.0 | 0.00 | 0.00 | 0.00 | 80 | |
| 20260903063607 | 16 | 275 | 0.0 | 0.0 | 0.00 | 0.00 | 0.00 | 81 | |
| 20260903063405 | 16 | 275 | 0.0 | 0.0 | 0.00 | 0.00 | 0.00 | 82 | |
| 20260903063203 | 16 | 275 | 0.0 | 0.0 | 0.00 | 0.00 | 0.00 | 82 | |
| 20260903063001 | 16 | 275 | 0.0 | 0.0 | 0.00 | 0.00 | 0.00 | 82 | |
| 20260903062759 | 16 | 275 | 0.0 | 0.0 | 0.00 | 0.00 | 0.00 | 81 | |
| 20260903062557 | 17 | 275 | 0.0 | 0.0 | 0.00 | 0.00 | 0.00 | 81 | |
| 20260903062355 | 17 | 275 | 0.0 | 0.0 | 0.00 | 0.00 | 0.00 | 82 | |
| 20260903062156 | 17 | 275 | 0.0 | 0.0 | 0.00 | 0.00 | 0.00 | 82 | |
| 20260903061951 | 17 | 275 | 0.0 | 0.0 | 0.00 | 0.00 | 0.00 | 82 | |
| 20260903061749 | 17 | 275 | 0.0 | 0.0 | 0.00 | 0.00 | 0.00 | 81 | |
| 20260903061548 | 17 | 275 | 0.0 | 0.0 | 0.00 | 0.00 | 0.00 | 81 | |
| 20260903061346 | 17 | 275 | 0.0 | 0.0 | 0.00 | 0.00 | 0.00 | 81 | |
| 20260903061144 | 17 | 275 | 0.0 | 0.0 | 0.00 | 0.00 | 0.00 | 81 | |
| 20260903060942 | 17 | 275 | 0.0 | 0.0 | 0.00 | 0.00 | 0.00 | 81 | |
| 20260903060740 | 17 | 275 | 0.0 | 0.0 | 0.00 | 0.00 | 0.00 | 81 | |
| 20260903060538 | 17 | 275 | 0.0 | 0.0 | 0.00 | 0.00 | 0.00 | 81 | |
| 20260903060336 | 17 | 275 | 0.0 | 0.0 | 0.00 | 0.00 | 0.00 | 80 | |
| 20260903060134 | 17 | 275 | 0.0 | 0.0 | 0.00 | 0.00 | 0.00 | 80 | |
| 20260903055932 | 17 | 275 | 0.0 | 0.0 | 0.00 | 0.00 | 0.00 | 80 | |
| 20260903055529 | 17 | 275 | 0.0 | 0.0 | 0.00 | 0.00 | 0.00 | 79 | |
| 20260903055327 | 17 | 275 | 0.0 | 0.0 | 0.00 | 0.00 | 0.00 | 79 | |
| 20260903055125 | 17 | 275 | 0.0 | 0.0 | 0.00 | 0.00 | 0.00 | 79 | |
| 20260903054923 | 17 | 275 | 0.0 | 0.0 | 0.00 | 0.00 | 0.00 | 79 | |
| 20260903054721 | 17 | 275 | 0.0 | 0.0 | 0.00 | 0.00 | 0.00 | 79 | |
| 20260903054519 | 17 | 275 | 0.0 | 0.0 | 0.00 | 0.00 | 0.00 | 79 | |
| 20260903054317 | 17 | 275 | 0.0 | 0.0 | 0.00 | 0.00 | 0.00 | 78 | |
| 20260903054115 | 17 | 275 | 0.0 | 0.0 | 0.00 | 0.00 | 0.00 | 78 | |
| 20260903053913 | 17 | 275 | 0.0 | 0.0 | 0.00 | 0.00 | 0.00 | 78 | |
| 20260903053711 | 17 | 275 | 0.0 | 0.0 | 0.00 | 0.00 | 0.00 | 78 | |
| 20260903053509 | 17 | 275 | 0.0 | 0.0 | 0.00 | 0.00 | 0.00 | 79 | |
| 20260903053308 | 17 | 275 | 0.0 | 0.0 | 0.00 | 0.00 | 0.00 | 79 | |
| 20260903053106 | 17 | 275 | 0.0 | 0.0 | 0.00 | 0.00 | 0.00 | 78 | |
| 20260903052904 | 17 | 275 | 0.0 | 0.0 | 0.00 | 0.00 | 0.00 | 79 | |
| 20260903052702 | 17 | 275 | 0.0 | 0.0 | 0.00 | 0.00 | 0.00 | 79 | |
| 20260903052500 | 17 | 275 | 0.0 | 0.0 | 0.00 | 0.00 | 0.00 | 79 | |
| 20260903052258 | 17 | 275 | 0.0 | 0.0 | 0.00 | 0.00 | 0.00 | 79 | |
| 20260903052056 | 17 | 275 | 0.0 | 0.0 | 0.00 | 0.00 | 0.00 | 80 | |
| 20260903051854 | 17 | 275 | 0.0 | 0.0 | 0.00 | 0.00 | 0.00 | 80 | |
| 20260903051450 | 17 | 275 | 0.0 | 0.0 | 0.00 | 0.00 | 0.00 | 79 | |
| 20260903051249 | 18 | 275 | 0.0 | 0.0 | 0.00 | 0.00 | 0.00 | 79 | |
| 20260903051047 | 18 | 275 | 0.0 | 0.0 | 0.00 | 0.00 | 0.00 | 78 | |
| 20260903050845 | 18 | 275 | 0.0 | 0.0 | 0.00 | 0.00 | 0.00 | 78 | |
| 20260903050643 | 18 | 275 | 0.0 | 0.0 | 0.00 | 0.00 | 0.00 | 78 | |
| 20260903050441 | 18 | 275 | 0.0 | 0.0 | 0.00 | 0.00 | 0.00 | 78 | |
| 20260903050239 | 18 | 275 | 0.0 | 0.0 | 0.00 | 0.00 | 0.00 | 78 | |
| 20260903050037 | 18 | 275 | 0.0 | 0.0 | 0.00 | 0.00 | 0.00 | 77 | |
| 20260903045633 | 18 | 275 | 0.0 | 0.0 | 0.00 | 0.00 | 0.00 | 77 | |
| 20260903045433 | 18 | 275 | 0.0 | 0.0 | 0.00 | 0.00 | 0.00 | 77 | |
| 20260903045229 | 18 | 275 | 0.0 | 0.0 | 0.00 | 0.00 | 0.00 | 76 | |
| 20260903045028 | 18 | 275 | 0.0 | 0.0 | 0.00 | 0.00 | 0.00 | 76 | |
| 20260903044826 | 18 | 275 | 0.0 | 0.0 | 0.00 | 0.00 | 0.00 | 75 | |
| 20260903044624 | 18 | 275 | 0.0 | 0.0 | 0.00 | 0.00 | 0.00 | 75 | |
| 20260903044424 | 18 | 275 | 0.0 | 0.0 | 0.00 | 0.00 | 0.00 | 74 | |
| 20260903044220 | 18 | 275 | 0.0 | 0.0 | 0.00 | 0.00 | 0.00 | 74 | |
| 20260903044018 | 18 | 275 | 0.0 | 0.0 | 0.00 | 0.00 | 0.00 | 74 | |
| 20260903043816 | 18 | 275 | 0.0 | 0.0 | 0.00 | 0.00 | 0.00 | 74 | |
| 20260903043614 | 18 | 275 | 0.0 | 0.0 | 0.00 | 0.00 | 0.00 | 74 | |
| 20260903043412 | 18 | 275 | 0.0 | 0.0 | 0.00 | 0.00 | 0.00 | 73 | |
| 20260903043210 | 18 | 275 | 0.0 | 0.0 | 0.00 | 0.00 | 0.00 | 73 | |
| 20260903043008 | 18 | 275 | 0.0 | 0.0 | 0.00 | 0.00 | 0.00 | 74 | |
| 20260903042605 | 18 | 275 | 0.0 | 0.0 | 0.00 | 0.00 | 0.00 | 75 | |
| 20260903042403 | 18 | 275 | 0.0 | 0.0 | 0.00 | 0.00 | 0.00 | 75 | |
| 20260903041959 | 19 | 275 | 0.0 | 0.0 | 0.00 | 0.00 | 0.00 | 75 | |
| 20260903041757 | 19 | 275 | 0.0 | 0.0 | 0.00 | 0.00 | 0.00 | 74 | |
| 20260903041556 | 19 | 275 | 0.0 | 0.0 | 0.00 | 0.00 | 0.00 | 74 | |
| 20260903041353 | 19 | 275 | 0.0 | 0.0 | 0.00 | 0.00 | 0.00 | 74 | |
| 20260903041151 | 19 | 275 | 0.0 | 4.8 | 0.00 | 0.00 | 0.00 | 74 | |
| 20260903040949 | 19 | 275 | 0.0 | 4.8 | 0.00 | 0.00 | 0.00 | 74 | |
| 20260903040546 | 19 | 288 | 1.6 | 3.2 | 0.00 | 0.00 | 0.00 | 74 | |
| 20260903040344 | 19 | 289 | 1.6 | 3.2 | 0.00 | 0.00 | 0.00 | 73 | |
| 20260903040142 | 19 | 288 | 3.2 | 1.6 | 0.00 | 0.00 | 0.00 | 73 | |
| 20260903035940 | 20 | 289 | 1.6 | 1.6 | 0.00 | 0.00 | 0.00 | 71 | |
| 20260903035738 | 20 | 267 | 0.0 | 6.4 | 0.00 | 0.00 | 0.00 | 69 | |
| 20260903035334 | 20 | 260 | 0.0 | 6.4 | 0.00 | 0.00 | 0.00 | 69 | |
| 20260903034930 | 20 | 284 | 1.6 | 6.4 | 0.00 | 0.00 | 0.00 | 68 | |
| 20260903034729 | 20 | 298 | 4.8 | 4.8 | 0.00 | 0.00 | 0.00 | 67 | |
| 20260903034527 | 20 | 285 | 4.8 | 4.8 | 0.00 | 0.00 | 0.00 | 67 | |
| 20260903034325 | 20 | 292 | 1.6 | 4.8 | 0.00 | 0.00 | 0.00 | 66 | |
| 20260903034123 | 20 | 291 | 3.2 | 4.8 | 0.00 | 0.00 | 0.00 | 66 | |
| 20260903033921 | 20 | 305 | 3.2 | 4.8 | 0.00 | 0.00 | 0.00 | 65 | |
| 20260903033719 | 20 | 284 | 4.8 | 9.7 | 0.00 | 0.00 | 0.00 | 65 | |
| 20260903033517 | 20 | 288 | 3.2 | 9.7 | 0.00 | 0.00 | 0.00 | 64 | |
| 20260903033315 | 20 | 300 | 3.2 | 9.7 | 0.00 | 0.00 | 0.00 | 65 | |
| 20260903033113 | 20 | 310 | 3.2 | 9.7 | 0.00 | 0.00 | 0.00 | 64 | |
| 20260903032912 | 20 | 310 | 4.8 | 9.7 | 0.00 | 0.00 | 0.00 | 62 | |
| 20260903032710 | 20 | 300 | 6.4 | 8.0 | 0.00 | 0.00 | 0.00 | 63 | |
| 20260903032306 | 20 | 295 | 4.8 | 8.0 | 0.00 | 0.00 | 0.00 | 63 | |
| 20260903032104 | 20 | 306 | 4.8 | 9.7 | 0.00 | 0.00 | 0.00 | 65 | |
| 20260903031902 | 20 | 322 | 6.4 | 9.7 | 0.00 | 0.00 | 0.00 | 63 | |
| 20260903031700 | 20 | 302 | 6.4 | 6.4 | 0.00 | 0.00 | 0.00 | 62 | |
| 20260903031458 | 20 | 306 | 8.0 | 6.4 | 0.00 | 0.00 | 0.00 | 62 | |
| 20260903031256 | 20 | 303 | 4.8 | 6.4 | 0.00 | 0.00 | 0.00 | 60 | |
| 20260903031056 | 20 | 307 | 6.4 | 4.8 | 0.00 | 0.00 | 0.00 | 61 | |
| 20260903030852 | 20 | 310 | 3.2 | 4.8 | 0.00 | 0.00 | 0.00 | 59 | |
| 20260903030651 | 20 | 300 | 1.6 | 4.8 | 0.00 | 0.00 | 0.00 | 58 | |
| 20260903030449 | 20 | 312 | 1.6 | 4.8 | 0.00 | 0.00 | 0.00 | 58 | |
| 20260903030247 | 20 | 296 | 1.6 | 4.8 | 0.00 | 0.00 | 0.00 | 58 | |
| 20260903030045 | 20 | 310 | 4.8 | 4.8 | 0.00 | 0.00 | 0.00 | 58 | |
| 20260903025843 | 20 | 295 | 1.6 | 4.8 | 0.00 | 0.00 | 0.00 | 57 | |
| 20260903025641 | 20 | 302 | 1.6 | 0.0 | 0.00 | 0.00 | 0.00 | 57 | |
| 20260903025439 | 20 | 227 | 0.0 | 0.0 | 0.00 | 0.00 | 0.00 | 56 | |
| 20260903025237 | 21 | 227 | 0.0 | 0.0 | 0.00 | 0.00 | 0.00 | 56 | |
| 20260903025035 | 21 | 227 | 0.0 | 0.0 | 0.00 | 0.00 | 0.00 | 55 | |
| 20260903024833 | 21 | 227 | 0.0 | 0.0 | 0.00 | 0.00 | 0.00 | 55 | |
| 20260903024632 | 21 | 227 | 0.0 | 0.0 | 0.00 | 0.00 | 0.00 | 54 | |
| 20260903024429 | 21 | 227 | 0.0 | 0.0 | 0.00 | 0.00 | 0.00 | 54 | |
| 20260903024025 | 21 | 227 | 0.0 | 0.0 | 0.00 | 0.00 | 0.00 | 54 | |
| 20260903023823 | 21 | 227 | 0.0 | 0.0 | 0.00 | 0.00 | 0.00 | 53 | |
| 20260903023621 | 21 | 227 | 0.0 | 0.0 | 0.00 | 0.00 | 0.00 | 53 | |
| 20260903023419 | 21 | 206 | 0.0 | 0.0 | 0.00 | 0.00 | 0.00 | 53 | |
| 20260903023217 | 21 | 206 | 0.0 | 0.0 | 0.00 | 0.00 | 0.00 | 52 | |
| 20260903023015 | 21 | 206 | 0.0 | 0.0 | 0.00 | 0.00 | 0.00 | 52 | |
| 20260903022409 | 22 | 206 | 0.0 | 0.0 | 0.00 | 0.00 | 0.00 | 51 | |
| 20260903022207 | 22 | 206 | 0.0 | 1.6 | 0.00 | 0.00 | 0.00 | 50 | |
| 20260903021803 | 22 | 206 | 0.0 | 1.6 | 0.00 | 0.00 | 0.00 | 49 | |
| 20260903021604 | 22 | 206 | 0.0 | 0.0 | 0.00 | 0.00 | 0.00 | 49 | |
| 20260903021359 | 22 | 194 | 0.0 | 0.0 | 0.00 | 0.00 | 0.00 | 49 | |
| 20260903021158 | 22 | 258 | 0.0 | 1.6 | 0.00 | 0.00 | 0.00 | 48 | |
| 20260903020956 | 22 | 258 | 0.0 | 1.6 | 0.00 | 0.00 | 0.00 | 48 | |
| 20260903020754 | 22 | 258 | 0.0 | 1.6 | 0.00 | 0.00 | 0.00 | 48 | |
| 20260903020553 | 23 | 258 | 0.0 | 0.0 | 0.00 | 0.00 | 0.00 | 48 | |
| 20260903020350 | 23 | 258 | 0.0 | 0.0 | 0.00 | 0.00 | 0.00 | 48 | |
| 20260903020149 | 23 | 274 | 0.0 | 8.0 | 0.00 | 0.00 | 0.00 | 47 | |
| 20260903015947 | 23 | 274 | 0.0 | 8.0 | 0.00 | 0.00 | 0.00 | 47 | |
| 20260903015744 | 23 | 243 | 0.0 | 4.8 | 0.00 | 0.00 | 0.00 | 47 | |
| 20260903015542 | 23 | 243 | 0.0 | 4.8 | 0.00 | 0.00 | 0.00 | 47 | |
| 20260903015138 | 23 | 239 | 0.0 | 9.7 | 0.00 | 0.00 | 0.00 | 47 | |
| 20260903014936 | 23 | 288 | 1.6 | 9.7 | 0.00 | 0.00 | 0.00 | 47 | |
| 20260903014734 | 23 | 281 | 3.2 | 11.3 | 0.00 | 0.00 | 0.00 | 47 | |
| 20260903014532 | 23 | 262 | 0.0 | 11.3 | 0.00 | 0.00 | 0.00 | 47 | |
| 20260903014128 | 23 | 271 | 1.6 | 12.9 | 0.00 | 0.00 | 0.00 | 46 | |
| 20260903013926 | 23 | 219 | 0.0 | 12.9 | 0.00 | 0.00 | 0.00 | 46 | |
| 20260903013522 | 23 | 278 | 9.7 | 11.3 | 0.00 | 0.00 | 0.00 | 46 | |
| 20260903013320 | 24 | 177 | 1.6 | 11.3 | 0.00 | 0.00 | 0.00 | 45 | |
| 20260903013118 | 24 | 248 | 4.8 | 11.3 | 0.00 | 0.00 | 0.00 | 45 | |
| 20260903012916 | 24 | 260 | 6.4 | 11.3 | 0.00 | 0.00 | 0.00 | 45 | |
| 20260903012714 | 24 | 157 | 1.6 | 12.9 | 0.00 | 0.00 | 0.00 | 45 | |
| 20260903012310 | 24 | 344 | 0.0 | 12.9 | 0.00 | 0.00 | 0.00 | 44 | |
| 20260903011704 | 24 | 253 | 0.0 | 11.3 | 0.00 | 0.00 | 0.00 | 44 |